[[{"header":{"parameterUnit":"m.s-1","parameterCategory":1,"la1":30.2991,"la2":30.254,"lo1":-89.0895,"lo2":-89.0444,"dy":0.0017,"dx":0.0017,"nx":28,"ny":28,"refTime":"2025-05-24T03:00:00:Z","depth":0,"parameterNumber":2,"parameterNumberName":"U-component_of_WINDS"},"data":[0,0,0,0,0,0,0,0,0,0,0,0,0,0,0,0,0,0,0,0,0,0,0,0,0,0,0,0,0,0,0,0,0,0,0,0,0,0,0,0,0,0,0,0,0,0,0,0,0,0,0,0,0,0,0,0,0,0,1.2277,1.2278,0,1.2368,1.2369,1.237,1.2364,1.2362,1.2361,1.236,1.2454,1.2458,1.2462,0,0,0,0,0,0,0,0,0,0,0,0,0,1.2101,1.2105,1.2277,1.2278,1.228,1.2367,1.2369,1.237,1.2364,1.2362,1.2361,1.2359,1.2453,1.2457,1.2462,0,0,0,0,0,0,0,0,0,0,0,0,0,1.2183,1.2106,1.2277,1.2287,1.2289,1.2367,1.2369,1.237,1.2364,1.2362,1.236,1.2358,1.2452,1.2457,1.2463,1.2537,0,0,1.248,1.2482,0,0,0,0,0,0,0,0,1.2179,1.219,1.2285,1.2287,1.2289,1.2352,1.2341,1.2426,1.2365,1.2336,1.236,1.2357,1.2422,1.243,1.2451,1.2542,1.2546,1.248,1.2484,1.2486,1.2488,0,0,0,0,0,0,0,1.2173,1.2186,1.2313,1.2286,1.2289,1.2288,1.2297,1.2357,1.2389,1.2338,1.2338,1.2349,1.2423,1.2446,1.2454,1.2547,1.248,1.2485,1.2489,1.2491,1.2702,1.2705,0,0,0,0,0,0,1.2165,1.2181,1.231,1.2316,1.2228,1.2292,1.2303,1.2334,1.2388,1.2395,1.235,1.2348,1.2437,1.2447,1.2457,1.2547,1.2486,1.2491,1.2495,1.27,1.2703,1.2705,0,0,0,0,0,0,1.2161,1.2176,1.2307,1.2248,1.2265,1.2298,1.2332,1.2337,1.236,1.2397,1.2403,1.2368,1.2436,1.2449,1.2517,1.255,1.2494,1.2499,1.2698,1.2701,1.2704,1.2729,0,0,0,0,0,0,1.2156,1.2175,1.2203,1.2249,1.2268,1.2365,1.2334,1.234,1.2369,1.2367,1.2416,1.2422,1.2436,1.2509,1.2523,1.2557,1.2503,1.2695,1.2699,1.2703,1.2725,1.2733,1.2739,0,0,0,0,0,1.215,1.2207,1.2205,1.2221,1.2304,1.2367,1.2378,1.2392,1.2372,1.2401,1.2425,1.242,1.2545,1.2516,1.2531,1.2568,1.2693,1.2698,1.2703,1.2722,1.2731,1.2739,0,0,0,0,0,0,1.2166,1.2214,1.2211,1.2285,1.2322,1.2366,1.2403,1.2401,1.2445,1.2441,1.2457,1.2468,1.2536,1.2559,1.2526,1.2643,1.2616,1.2625,1.2625,1.2634,1.2641,1.2634,1.2508,0,0,0,0,0,1.2178,1.2224,1.2264,1.2325,1.2343,1.237,1.2398,1.2405,1.2444,1.246,1.2489,1.2527,1.2575,1.2606,1.2652,1.2729,1.2739,1.2762,1.2768,1.2774,1.2781,1.2823,1.2833,1.2722,1.2722,1.2722,0,0,1.2203,1.2235,1.2263,1.2329,1.2358,1.2406,1.2383,1.2435,1.2471,1.2468,1.2533,1.2556,1.26,1.2672,1.2706,1.2694,1.2814,1.278,1.2785,1.2789,1.2829,1.2839,1.2849,1.2725,1.2725,1.2724,0,0,1.2274,1.2303,1.2357,1.2386,1.2431,1.2448,1.2461,1.2505,1.2519,1.2585,1.2584,1.2627,1.2709,1.274,1.2767,1.2848,1.2845,1.2863,1.2899,1.294,1.2948,1.2956,1.2985,1.2995,1.287,1.287,1.287,0,1.23,1.2372,1.2385,1.2437,1.2466,1.2465,1.252,1.2548,1.2605,1.2625,1.2611,1.2713,1.2742,1.2822,1.2841,1.2863,1.2878,1.2858,1.2946,1.2954,1.2961,1.2989,1.3,1.2872,1.2872,1.2872,1.2871,0,1.2401,1.2451,1.249,1.2544,1.2577,1.263,1.2652,1.2684,1.2689,1.2708,1.2775,1.281,1.2863,1.2882,1.2888,1.2963,1.2953,1.2942,1.2916,1.2974,1.3,1.301,1.2875,1.2874,1.2873,1.2873,0,0,1.2485,1.2545,1.2559,1.2583,1.2632,1.2671,1.2724,1.2775,1.2802,1.2842,1.2887,1.2955,1.2945,1.2975,1.2984,1.302,1.3082,1.3004,1.3006,1.3017,1.3166,1.3173,1.3185,1.308,1.3082,1.3084,1.3162,0,1.256,1.2653,1.2667,1.2749,1.2795,1.2795,1.2841,1.2876,1.2895,1.2937,1.2958,1.3007,1.299,1.3008,1.3043,1.3067,1.3112,1.3061,1.3122,1.3124,1.3111,1.3199,1.3208,1.3279,1.3172,1.3174,1.3175,0,1.266,1.2701,1.2788,1.283,1.285,1.2891,1.2938,1.2979,1.3018,1.303,1.3063,1.3067,1.3123,1.3094,1.317,1.3136,1.3161,1.3177,1.318,1.3186,1.3153,1.3207,1.3303,1.3313,1.3191,1.319,1.3189,0,1.2711,1.2789,1.2851,1.2872,1.2922,1.2951,1.2973,1.3011,1.3041,1.3082,1.3102,1.3149,1.3176,1.3213,1.323,1.3208,1.3305,1.3278,1.3316,1.3316,1.3337,1.3335,1.3437,1.3354,1.3354,1.3354,1.3353,0,1.2793,1.2847,1.2874,1.2912,1.2972,1.2987,1.3045,1.3067,1.31,1.3143,1.3146,1.3186,1.3207,1.325,1.3264,1.3325,1.3337,1.3347,1.335,1.3347,1.3345,1.3364,1.3359,1.3356,1.3356,1.3355,1.3355,0,1.286,1.2881,1.2948,1.299,1.3002,1.3044,1.308,1.3117,1.3136,1.3189,1.3203,1.3232,1.3283,1.3304,1.3367,1.3376,1.3446,1.3445,1.3432,1.3433,1.347,1.3466,1.3587,1.3603,1.351,1.351,1.3511,0,1.2911,1.2952,1.2998,1.3026,1.3049,1.3095,1.3125,1.3142,1.3173,1.3221,1.3252,1.3302,1.3344,1.3425,1.3452,1.35,1.35,1.3539,1.3507,1.3502,1.35,1.3497,1.3501,1.3545,1.3546,1.3547,1.3548,0,1.2999,1.3007,1.305,1.3096,1.3131,1.3169,1.3206,1.3229,1.3251,1.3286,1.3337,1.3369,1.3433,1.3483,1.3532,1.3556,1.3555,1.3557,1.3569,1.3565,1.3556,1.3561,1.3447,1.3554,1.3554,1.3553,1.3553,1.3553,1.3059,1.3095,1.3133,1.318,1.3209,1.3243,1.328,1.3303,1.3346,1.3398,1.3406,1.3461,1.3499,1.3565,1.3591,1.3634,1.3624,1.3641,1.3645,1.3648,1.365,1.3549,1.3643,1.3643,1.3643,1.3643,1.3643,0,1.3146,1.3171,1.3214,1.3265,1.3302,1.3298,1.3338,1.337,1.3418,1.3454,1.3494,1.3553,1.3601,1.3632,1.3681,1.371,1.3711,1.3722,1.372,1.3726,1.3657,1.3642,1.3721,1.3721,1.3721,1.372,1.372,1.372,1.3196,1.3257,1.3269,1.3344,1.3368,1.3421,1.3445,1.3476,1.3504,1.357,1.361,1.3629,1.3663,1.3715,1.3759,1.3767,1.3784,1.3796,1.3803,1.3739,1.373,1.3723,1.3709,1.38,1.38,1.3868,1.3869,1.3869]},{"header":{"parameterUnit":"m.s-1","parameterCategory":1,"la1":30.2991,"la2":30.254,"lo1":-89.0895,"lo2":-89.0444,"dy":0.0017,"dx":0.0017,"nx":28,"ny":28,"refTime":"2025-05-24T03:00:00:Z","depth":0,"parameterNumber":3,"parameterNumberName":"V-component_of_WINDS"},"data":[0,0,0,0,0,0,0,0,0,0,0,0,0,0,0,0,0,0,0,0,0,0,0,0,0,0,0,0,0,0,0,0,0,0,0,0,0,0,0,0,0,0,0,0,0,0,0,0,0,0,0,0,0,0,0,0,0,0,1.1546,1.1547,0,1.1604,1.1604,1.1605,1.1604,1.1603,1.1603,1.1602,1.1661,1.1663,1.1666,0,0,0,0,0,0,0,0,0,0,0,0,0,1.1436,1.1438,1.1546,1.1547,1.1548,1.1604,1.1604,1.1605,1.1604,1.1603,1.1602,1.1601,1.166,1.1663,1.1666,0,0,0,0,0,0,0,0,0,0,0,0,0,1.1488,1.1439,1.1546,1.1554,1.1555,1.1603,1.1604,1.1605,1.1604,1.1603,1.1602,1.1601,1.166,1.1663,1.1666,1.1711,0,0,1.1677,1.1678,0,0,0,0,0,0,0,0,1.1485,1.1492,1.1552,1.1553,1.1555,1.1596,1.1587,1.1641,1.1605,1.1586,1.1602,1.16,1.164,1.1645,1.1659,1.1714,1.1716,1.1677,1.1679,1.1681,1.1682,0,0,0,0,0,0,0,1.1481,1.1489,1.1569,1.1553,1.1555,1.1555,1.1561,1.1597,1.1619,1.1587,1.1587,1.1594,1.1641,1.1655,1.166,1.1717,1.1677,1.168,1.1682,1.1684,1.1812,1.1813,0,0,0,0,0,0,1.1476,1.1486,1.1567,1.1571,1.1516,1.1558,1.1564,1.1584,1.1618,1.1623,1.1595,1.1594,1.165,1.1656,1.1662,1.1717,1.1681,1.1684,1.1686,1.1811,1.1812,1.1814,0,0,0,0,0,0,1.1474,1.1483,1.1565,1.1529,1.1539,1.1561,1.1582,1.1585,1.16,1.1624,1.1628,1.1606,1.1649,1.1657,1.1699,1.1719,1.1685,1.1689,1.1809,1.1811,1.1813,1.1827,0,0,0,0,0,0,1.147,1.1482,1.1499,1.1529,1.1541,1.16,1.1584,1.1587,1.1606,1.1605,1.1635,1.1639,1.1649,1.1694,1.1702,1.1723,1.1691,1.1807,1.181,1.1812,1.1825,1.1829,1.1833,0,0,0,0,0,1.1466,1.1501,1.15,1.151,1.1562,1.1602,1.1608,1.1619,1.1607,1.1625,1.1641,1.1638,1.1715,1.1698,1.1708,1.173,1.1806,1.1809,1.1812,1.1823,1.1829,1.1833,0,0,0,0,0,0,1.1473,1.1505,1.1504,1.1549,1.1573,1.1601,1.1624,1.1624,1.1651,1.1649,1.1661,1.1668,1.1709,1.1724,1.1704,1.1775,1.1759,1.1764,1.1764,1.177,1.1774,1.177,1.1694,0,0,0,0,0,1.148,1.1509,1.1535,1.1572,1.1584,1.1602,1.1619,1.1625,1.165,1.166,1.1678,1.1703,1.1732,1.1752,1.178,1.1827,1.1834,1.1847,1.1851,1.1854,1.1859,1.1885,1.1892,1.1824,1.1824,1.1824,0,0,1.1494,1.1515,1.1532,1.1574,1.1593,1.1623,1.161,1.1642,1.1665,1.1665,1.1705,1.172,1.1748,1.1792,1.1813,1.1805,1.1879,1.1858,1.1861,1.1863,1.1889,1.1895,1.1901,1.1826,1.1825,1.1825,0,0,1.1535,1.1554,1.1587,1.1606,1.1635,1.1647,1.1655,1.1683,1.1693,1.1734,1.1735,1.1761,1.1812,1.1832,1.1849,1.1898,1.1898,1.1907,1.1929,1.1954,1.196,1.1965,1.1983,1.1989,1.1911,1.1911,1.1911,0,1.155,1.1595,1.1604,1.1637,1.1655,1.1656,1.1691,1.1709,1.1745,1.1758,1.1749,1.1813,1.1832,1.1882,1.1894,1.1907,1.1917,1.1904,1.1958,1.1963,1.1968,1.1985,1.1992,1.1912,1.1912,1.1912,1.1912,0,1.1611,1.1642,1.1666,1.1701,1.1722,1.1755,1.177,1.1791,1.1794,1.1807,1.1849,1.1872,1.1905,1.1917,1.1921,1.1967,1.1962,1.1956,1.194,1.1975,1.1992,1.1999,1.1914,1.1913,1.1913,1.1913,0,0,1.1659,1.1699,1.1708,1.1724,1.1756,1.178,1.1813,1.1846,1.1864,1.1889,1.1917,1.196,1.1955,1.1974,1.198,1.2002,1.2041,1.1993,1.1994,1.2002,1.2094,1.21,1.2107,1.204,1.2042,1.2043,1.2092,0,1.1704,1.1763,1.1773,1.1825,1.1854,1.1856,1.1885,1.1908,1.192,1.1947,1.1961,1.1992,1.1982,1.1993,1.2016,1.2032,1.206,1.2028,1.2068,1.2069,1.2062,1.2116,1.2122,1.2167,1.2099,1.21,1.2101,0,1.1765,1.1792,1.1847,1.1875,1.1888,1.1914,1.1945,1.197,1.1996,1.2004,1.2026,1.2029,1.2064,1.2047,1.2095,1.2074,1.209,1.2101,1.2103,1.2108,1.2088,1.2123,1.2182,1.2189,1.2111,1.211,1.2109,0,1.1795,1.1845,1.1885,1.1898,1.1932,1.1951,1.1965,1.199,1.2009,1.2037,1.2049,1.208,1.2097,1.2121,1.2133,1.2119,1.2181,1.2164,1.2189,1.2189,1.2203,1.2202,1.2267,1.2212,1.2212,1.2212,1.2212,0,1.1846,1.1879,1.1899,1.1923,1.1961,1.1972,1.201,1.2024,1.2046,1.2074,1.2077,1.2102,1.2116,1.2145,1.2154,1.2194,1.2201,1.2209,1.2211,1.2209,1.2208,1.2221,1.2218,1.2214,1.2214,1.2213,1.2213,0,1.1886,1.19,1.1944,1.1972,1.198,1.2007,1.2031,1.2055,1.2068,1.2103,1.2112,1.2131,1.2165,1.2179,1.2219,1.2226,1.2271,1.2271,1.2263,1.2264,1.2288,1.2286,1.2363,1.2375,1.2312,1.2313,1.2313,0,1.1918,1.1944,1.1975,1.1994,1.2009,1.2039,1.2059,1.207,1.2091,1.2123,1.2143,1.2176,1.2203,1.2256,1.2274,1.2306,1.2306,1.2331,1.2311,1.2309,1.2308,1.2307,1.231,1.2335,1.2336,1.2337,1.2337,0,1.1972,1.1978,1.2006,1.2037,1.2061,1.2086,1.211,1.2125,1.2141,1.2164,1.2198,1.2219,1.226,1.2294,1.2326,1.2342,1.2342,1.2343,1.2351,1.2349,1.2344,1.2348,1.2274,1.2341,1.2341,1.2341,1.234,1.234,1.201,1.2034,1.2059,1.2091,1.211,1.2133,1.2157,1.2173,1.2201,1.2236,1.2241,1.2278,1.2304,1.2347,1.2364,1.2393,1.2387,1.2398,1.2401,1.2403,1.2405,1.2339,1.2399,1.2399,1.2399,1.2399,1.2398,0,1.2066,1.2082,1.2111,1.2145,1.217,1.2168,1.2195,1.2216,1.2248,1.2272,1.2299,1.2338,1.2371,1.2391,1.2424,1.2443,1.2444,1.2451,1.2451,1.2454,1.2408,1.2399,1.245,1.245,1.245,1.245,1.245,1.245,1.2098,1.2138,1.2147,1.2197,1.2213,1.2249,1.2265,1.2286,1.2305,1.2349,1.2376,1.2389,1.2412,1.2446,1.2476,1.2481,1.2493,1.2501,1.2506,1.2463,1.2457,1.2452,1.2444,1.2503,1.2503,1.2549,1.255,1.255]}]]